SCP
0 0 0 0 0 0 0 0 0 0 0 0 0 -0 0 0 0 0 -0 -0 -0 -0 -0 -0 -0 0 0 -0 -0 -0 -0 -0 -0 -0 0 -0 0 -0 -0 -0 -0 -0 -0 -0 -0 -0 -0 -0 0
0 0 0 0 0 0 0 0 0 0 0 0 0 -0 0 0 0 -0 -0 -0 -0 -0 -0 -0 -0 0 0 -0 -0 -0 -0 -0 -0 -0 -0 0 0 -0 -0 -0 -0 -0 -0 0 0 0 -0 0 0
0 0 0 0 0 0 0 0 0 0 0 0 0 0 0 0 0 -0 -0 -0 -0 -0 -0 -0 -0 -0 0 0 0 -0 -0 -0 0 0 0 0 -0 -0 0 0 -0 0 0 0 0 -0 0 0 0
0 0 0 0 0 0 0 0 0 0 0 0 0 0 0 0 0 0 -0 -0 -0 -0 -0 -0 -0 -0 -0 -0 -0 -0 -0 -0 -0 0 0 0 -0 -0 -0 0 0 -0 -0 0 0 0 0 0 0
0 0 0 0 0 0 0 0 0 0 0 0 0 0 0 0 0 0 -0 0 -0 -0 -0 -0 -0 -0 -0 -0 -0 -0 -0 -0 -0 -0 -0 -0 -0 -0 -0 -0 0 -0 -0 0 0 0 0 0 0
0 0 0 0 0 0 0 0 0 0 0 0 0 0 0 0 0 0 0 0 0 0 0 0 0 0 0 0 0 0 0 0 0 0 0 0 0 0 -0 -0 0 0 0 0 0 0 0 0 0
0 0 0 0 0 0 0 0 0 0 0 0 0 0 0 0 0 0 0 0 0 0 0 0 0 0 0 0 0 0 0 0 0 0 0 0 0 0 0 0 0 0 0 0 0 0 0 0 0
0 0 0 0 0 0 0 0 0 0 0 0 0 0 0 0 0 0 0 0 0 0 0 0 0 0 0 0 0 0 0 0 0 0 0 0 0 0 0 0 0 0 0 0 0 0 0 0 0
0 0 0 0 0 0 0 0 0 0 0 0 0 0 0 0 0 0 0 0 0 0 0 0 0 0 0 0 0 0 0 0 0 0 0 0 0 0 0 0 0 0 0 0 0 0 0 0 0
0 0 0 0 0 0 0 0 0 0 0 0 0 0 0 0 0 0 0 0 0 0 0 0 0 0 0 0 0 0 0 0 0 0 0 0 0 0 0 0 0 0 0 0 0 0 0 0 0
0 0 0 0 0 0 0 0 0 0 0 0 0 0 0 0 0 0 0 0 0 0 0 0 0 0 0 0 0 0 0 0 0 0 0 0 0 0 0 0 0 0 0 0 0 0 0 0 0
0 0 0 0 0 0 0 0 0 0 0 0 0 0 0 0 0 0 0 0 0 0 0 0 0 0 0 0 0 0 0 0 0 0 0 0 0 0 0 0 0 0 0 0 0 0 0 0 0
0 0 0 0 0 0 0 0 0 0 0 0 0 0 0 0 0 0 0 0 0 0 0 0 0 0 0 0 0 0 0 0 0 0 0 0 0 0 0 0 0 0 0 0 0 0 0 0 0
0 0 0 0 0 0 0 0 0 0 0 0 0 0 0 0 0 0 0 0 0 0 0 0 0 0 0 0 0 0 0 0 0 0 0 0 0 0 0 0 0 0 0 0 0 0 0 0 0
0 0 0 0 0 0 0 0 0 0 0 0 0 0 0 0 0 0 0 0 0 0 0 0 0 0 0 0 0 0 0 0 0 0 0 0 0 0 0 0 0 0 0 0 0 0 0 0 0
0 0 0 0 0 0 0 0 0 0 0 0 0 0 0 0 0 0 0 0 0 0 0 0 0 0 0 0 0 0 0 0 0 0 0 0 0 0 0 0 0 0 0 0 0 0 0 0 0
0 0 0 0 0 0 0 0 0 0 0 0 0 0 0 0 0 0 0 0 0 0 0 0 0 0 0 0 0 0 0 0 0 0 0 0 0 0 0 0 0 0 0 0 0 0 0 0 0
0 0 0 0 0 0 0 0 0 0 0 0 0 0 0 0 0 0 0 0 0 0 0 0 0 0 0 0 0 0 0 0 0 0 0 0 0 0 0 0 0 0 0 0 0 0 0 0 0
0 0 0 0 0 0 0 0 0 0 0 0 0 0 0 0 0 0 0 0 0 0 0 0 0 0 0 0 0 0 0 0 0 0 0 0 0 0 0 0 0 0 0 0 0 0 0 0 0
0 0 0 0 0 0 0 0 0 0 0 0 0 0 0 0 0 0 0 0 0 0 0 0 0 0 0 0 0 0 0 0 0 0 0 0 0 0 0 0 0 0 0 0 0 0 0 0 0
0 0 0 0 0 0 0 0 0 0 0 0 0 0 0 0 0 0 0 0 0 0 0 0 0 0 0 0 0 0 0 0 0 0 0 0 0 0 0 0 0 0 0 0 0 0 0 0 0
0 0 0 0 0 0 0 0 0 0 0 0 0 0 0 0 0 0 0 0 0 0 0 0 0 0 0 0 0 0 0 0 0 0 0 0 0 0 0 0 0 0 0 0 0 0 0 0 0
0 0 0 0 0 0 0 0 0 0 0 0 0 0 0 0 0 0 0 0 0 0 0 0 0 0 0 0 0 0 0 0 0 0 0 0 0 0 0 0 0 0 0 0 0 0 0 0 0
0 0 0 0 0 0 0 0 0 0 0 0 0 0 0 0 0 0 0 0 0 0 0 0 0 0 0 0 0 0 0 0 0 0 0 0 0 0 0 0 0 0 0 0 0 0 0 0 0
0 0 0 0 0 0 0 0 0 0 0 0 0 0 0 0 0 0 0 0 0 0 0 0 0 0 0 0 0 0 0 0 0 0 0 0 0 0 0 0 0 0 0 0 0 0 0 0 0
0 0 0 0 0 0 0 0 0 0 0 0 0 0 0 0 0 0 0 0 0 0 0 0 0 0 0 0 0 0 0 0 0 0 0 0 0 0 0 0 0 0 0 0 0 0 0 0 0
0 0 0 0 0 0 0 0 0 0 0 0 0 0 0 0 0 0 0 0 0 -0 -0 -0 -0 -0 -0 0 0 0 0 0 0 0 0 0 0 0 0 0 0 0 0 0 0 0 0 0 0
0 0 0 0 0 0 0 0 0 0 0 0 0 0 0 0 0 0 0 0 -0 -0 -0 -0 -0 -0 -0 -0 0 0 0 0 0 0 0 0 0 0 0 0 0 0 0 0 0 0 0 0 0
0 0 0 0 0 -0 -0 0 0 0 0 0 0 0 -0 -0 -0 -0 -0 -0 -0 -0 -0 -0 0 0 0 0 0 0 0 0 0 0 0 0 0 0 0 0 0 0 0 0 0 0 0 0 0
0 0 0 0 0 0 0 0 0 0 0 0 0 -0 -0 -0 -0 -0 -0 -0 -0 -0 0 0 0 0 0 0 0 0 0 0 0 0 0 0 0 0 0 0 0 0 0 0 0 0 0 0 0
Wind_Speed_500mb
7 2 3 8 9 3 9 9 2 15 16 8 17 6 6 13 3 6 27 31 33 28 22 15 3 9 14 18 16 17 18 20 23 24 24 21 20 21 16 22 19 17 20 20 21 24 23 23 24
9 2 6 4 9 16 9 10 15 14 18 29 20 14 6 8 7 23 27 34 31 25 21 14 4 11 16 18 18 18 18 20 22 23 23 20 18 18 21 20 19 20 20 22 23 22 21 26 27
13 3 6 6 5 20 9 14 22 29 19 17 11 10 6 6 19 31 28 36 30 21 20 15 4 9 19 22 23 19 19 20 21 22 20 19 18 19 18 16 18 16 19 18 19 19 23 25 28
12 3 3 8 12 5 5 21 37 27 13 7 21 16 11 9 26 21 39 32 28 18 16 13 3 7 14 20 20 17 17 19 20 21 19 17 16 16 17 19 16 15 12 13 18 15 22 23 29
11 5 6 5 6 5 6 29 27 18 15 18 8 12 16 21 21 37 35 29 18 12 18 12 5 6 14 21 23 18 18 19 19 20 20 17 11 11 16 16 12 13 10 15 14 16 21 23 22
7 4 11 12 9 9 15 25 23 16 17 16 18 23 15 21 33 37 31 26 20 17 15 9 5 7 14 21 20 16 17 17 19 19 20 18 15 13 12 15 14 10 8 13 15 18 20 22 23
7 5 5 12 18 15 15 15 15 21 23 13 20 13 15 31 39 37 28 25 23 19 13 7 5 9 13 18 12 13 14 14 16 18 19 18 14 12 11 8 12 8 5 12 12 15 16 20 23
7 4 10 8 23 12 19 11 11 12 13 23 14 9 16 37 47 39 32 26 23 18 11 8 8 12 16 14 9 11 12 14 16 19 20 16 13 9 7 4 6 8 5 9 8 12 12 21 25
8 6 10 14 21 16 23 11 6 11 19 10 12 12 16 55 52 45 37 33 26 20 14 11 12 15 17 11 9 10 11 13 17 19 19 16 12 10 8 2 5 7 2 5 5 7 11 21 22
7 8 11 5 7 18 26 18 24 14 21 10 13 19 30 57 53 46 38 31 25 21 16 15 16 17 13 9 8 8 11 14 17 18 18 17 15 12 7 3 3 6 4 2 2 7 10 14 16
3 6 14 6 8 28 24 18 11 21 16 19 27 31 40 59 53 42 34 28 23 22 19 17 18 20 13 11 10 12 13 15 16 17 18 17 16 13 9 3 4 6 8 6 6 7 9 11 12
6 8 5 13 12 14 20 20 11 18 3 13 16 31 45 61 57 43 38 32 27 24 22 19 20 17 14 13 12 14 15 16 18 19 19 21 19 14 8 3 6 10 12 12 11 12 12 11 12
5 12 12 13 19 19 20 8 2 11 4 12 21 29 41 54 53 40 37 35 32 26 24 22 22 21 19 15 14 16 18 18 19 21 22 22 20 17 11 4 8 12 15 16 16 18 16 15 14
11 25 22 9 12 12 11 7 2 4 6 14 23 27 32 42 44 43 43 39 37 32 26 25 23 25 24 21 20 21 22 22 22 23 24 23 21 18 13 7 9 14 19 20 18 21 17 15 11
31 19 17 14 5 8 8 5 4 3 10 17 20 20 29 38 49 48 45 42 39 34 33 30 30 26 25 28 27 27 28 27 26 26 26 25 24 20 14 8 9 16 20 24 25 25 19 16 13
8 9 13 7 9 3 5 8 7 6 14 18 20 24 31 44 42 45 45 42 40 40 36 37 37 33 33 35 33 35 34 37 32 30 29 28 28 23 18 14 11 19 23 30 31 29 25 21 17
8 10 10 9 5 2 2 1 5 6 14 19 22 27 31 36 41 43 43 44 47 42 41 43 43 41 38 41 42 42 40 41 42 37 34 32 29 23 20 19 17 14 28 29 36 39 35 29 25
9 11 6 8 5 1 3 12 9 11 17 24 27 30 34 38 43 41 50 48 48 48 46 46 47 49 46 46 48 48 46 44 43 42 37 35 31 26 25 24 22 22 24 31 37 49 44 39 34
18 14 12 5 7 5 3 14 23 18 24 31 29 28 32 39 34 38 52 55 53 55 55 55 56 52 56 57 53 52 51 48 44 39 37 36 32 28 27 27 27 25 28 33 37 47 52 48 40
13 20 8 6 7 6 10 25 20 11 16 20 29 31 31 32 33 38 41 51 58 61 62 60 63 62 60 57 55 55 51 53 47 42 39 36 34 33 28 30 32 31 32 35 43 50 56 61 51
12 11 9 7 7 5 19 4 10 7 7 12 11 8 14 21 26 31 40 46 51 57 62 62 60 61 59 56 55 55 55 57 52 48 43 39 37 39 39 35 34 35 36 38 43 52 56 62 55
10 7 14 11 8 2 12 3 8 11 19 31 33 32 26 25 22 19 21 31 43 47 55 57 58 60 59 55 55 56 56 54 52 47 42 41 42 45 47 44 38 38 36 38 42 49 55 63 66
9 8 11 9 9 6 9 2 7 3 14 25 34 33 31 34 33 25 17 14 14 25 41 45 50 56 57 53 53 54 54 52 51 49 49 49 46 48 49 48 42 41 41 40 43 48 56 65 67
21 12 8 6 4 4 7 7 7 7 12 22 31 37 50 55 48 35 27 28 29 26 19 24 37 43 47 50 51 52 52 50 53 48 51 51 51 52 51 51 45 43 44 44 45 48 54 62 69
2 4 2 3 3 4 4 5 9 12 14 14 31 32 49 61 67 53 48 46 49 53 44 34 25 26 36 44 48 50 50 52 54 51 51 53 56 57 51 51 49 45 47 46 47 49 52 58 65
5 3 2 4 4 4 3 4 11 13 14 15 22 31 42 58 62 57 52 49 48 41 46 44 36 27 26 34 42 47 50 53 56 55 56 56 59 58 55 55 54 50 48 49 50 52 54 58 62
2 5 4 9 5 1 3 3 11 15 8 16 19 30 39 47 54 58 59 56 50 40 34 32 31 30 26 29 36 45 49 53 57 58 60 61 62 60 60 61 61 56 52 53 53 54 55 58 60
5 8 4 3 5 3 0 9 14 17 19 6 27 29 26 39 48 54 54 51 42 35 32 34 33 34 37 34 33 37 45 52 57 61 65 65 65 63 64 66 66 64 61 57 59 58 58 60 59
3 1 6 3 3 2 0 3 9 24 16 8 11 11 22 38 45 46 41 31 35 39 44 43 38 36 40 44 43 45 46 49 55 62 64 65 63 65 67 68 69 70 68 64 65 64 61 63 61
2 5 4 5 7 4 3 13 11 11 17 4 12 21 42 40 42 45 44 48 48 45 40 38 38 40 44 48 50 49 51 58 63 68 69 68 67 66 68 69 70 73 72 70 70 67 65 66 66
Wind_Direction_500mb
338 311 184 167 211 212 156 152 64 137 136 115 141 187 132 40 1 49 142 152 151 145 152 148 152 337 1 15 16 15 21 17 13 13 11 16 42 69 64 60 38 38 30 37 48 56 52 53 52
347 268 171 204 232 199 170 138 170 135 125 126 110 115 99 83 62 132 137 149 149 148 150 150 172 329 357 10 12 12 15 18 12 13 12 25 44 59 72 65 48 40 35 44 47 55 56 55 65
334 241 216 214 218 212 170 163 138 126 132 143 120 84 71 97 122 139 150 147 148 151 164 153 170 337 357 3 6 7 8 11 13 13 18 31 51 59 55 71 56 54 48 51 59 62 59 61 74
315 248 98 236 182 86 98 148 140 137 120 110 130 94 86 121 135 150 147 148 149 156 168 167 193 352 343 348 356 359 4 5 10 12 18 40 57 69 60 54 60 62 55 62 71 56 61 72 80
285 255 187 141 129 89 114 139 152 142 129 136 139 116 109 144 137 149 149 152 157 173 163 174 218 302 322 339 345 352 359 3 9 10 16 25 47 70 92 69 61 71 58 67 77 62 68 76 88
263 253 195 180 143 111 132 143 148 140 143 139 121 122 134 168 157 155 153 154 167 169 163 190 233 302 316 335 345 354 356 3 8 10 14 21 34 43 67 84 73 76 55 66 74 76 77 86 96
284 240 163 150 141 151 155 165 176 145 149 140 140 122 141 155 161 161 160 165 163 171 176 191 244 283 313 328 344 351 354 1 5 11 16 18 19 21 23 84 93 84 29 74 75 76 82 100 107
272 252 140 166 171 152 149 136 145 173 148 150 151 156 167 176 164 168 171 172 181 187 197 219 254 288 316 325 340 344 351 358 1 8 10 11 12 8 14 46 98 93 52 82 72 87 70 101 111
248 222 188 170 173 141 159 151 159 151 146 154 172 149 153 171 169 173 178 180 193 198 209 224 255 288 316 318 330 339 346 351 356 0 6 8 2 1 355 38 122 130 62 86 87 86 99 115 124
256 240 170 114 136 155 159 170 153 164 156 171 174 184 166 173 174 177 185 194 204 212 225 236 259 285 304 303 309 322 337 348 354 358 0 359 355 353 357 11 128 152 160 114 114 114 114 134 142
265 240 136 114 125 146 143 148 162 158 190 196 194 177 173 178 178 185 192 207 218 225 230 239 257 278 291 302 310 326 337 344 348 350 351 351 351 353 355 331 209 192 178 197 190 174 161 155 160
226 85 105 142 133 130 146 142 163 193 115 177 177 182 179 182 183 186 197 211 219 228 235 241 259 281 291 304 310 320 325 332 336 339 344 345 343 343 350 292 221 210 204 203 209 197 187 179 174
205 119 86 114 123 101 126 114 176 200 221 181 167 179 184 188 189 191 200 210 219 225 235 244 261 275 293 300 307 311 320 327 332 332 335 338 333 329 334 303 219 213 210 203 206 198 187 179 167
135 114 108 88 108 97 126 116 157 177 192 151 174 183 189 196 200 200 203 213 218 226 233 247 256 271 284 294 303 304 310 319 326 330 329 329 324 317 315 291 226 214 211 202 208 205 189 193 184
120 105 115 48 8 84 124 144 197 95 165 176 186 193 196 204 212 215 209 216 224 232 238 245 256 264 276 287 297 303 306 311 314 320 323 323 316 310 301 281 226 216 216 215 215 219 219 233 239
126 145 146 32 358 22 248 168 133 173 192 195 199 208 210 212 219 226 224 223 231 236 240 243 254 258 270 277 287 294 299 303 306 311 317 318 312 303 293 275 240 218 217 225 223 231 233 237 246
8 143 146 138 37 109 340 123 140 187 210 223 216 221 224 223 228 229 228 233 242 239 251 252 258 256 266 272 280 282 285 291 299 304 306 310 310 295 286 273 257 235 218 224 232 232 231 232 235
157 144 128 142 68 97 178 251 210 207 225 239 229 227 231 237 237 238 239 239 239 247 247 249 255 261 263 265 271 277 280 285 290 299 300 304 313 302 290 276 260 245 231 227 232 236 231 231 231
123 127 128 82 49 314 286 279 264 241 232 250 255 252 244 246 255 247 245 242 248 248 247 251 255 255 257 257 262 269 274 281 281 290 293 299 308 313 296 281 265 253 239 233 236 241 233 228 228
115 130 103 98 36 341 333 290 318 311 263 280 278 265 270 271 269 269 260 251 251 253 254 253 255 258 259 262 266 268 272 276 277 281 284 287 297 300 305 286 272 260 249 239 234 237 234 225 225
84 144 151 115 96 58 328 294 29 29 12 18 350 308 318 298 288 281 272 261 257 256 258 258 259 260 263 264 264 265 266 268 273 276 281 291 292 295 300 296 276 267 256 246 239 240 241 241 233
101 69 109 99 178 153 358 125 47 5 84 54 38 44 30 10 359 337 298 275 261 258 259 259 257 258 261 262 263 266 266 269 276 277 276 282 286 291 296 300 282 271 263 253 246 241 241 241 237
113 113 93 90 93 166 18 185 96 273 36 28 17 11 21 16 8 2 2 344 306 269 261 262 260 260 261 263 266 266 267 269 270 277 272 278 281 287 289 296 292 274 266 256 249 247 239 239 242
138 109 84 93 137 101 345 340 64 44 3 24 49 42 40 35 30 32 39 43 39 21 343 293 268 263 260 264 266 269 271 271 274 276 272 274 275 279 280 290 289 273 265 262 255 248 246 239 241
104 156 155 130 96 119 344 305 64 32 45 82 76 51 44 41 43 49 54 54 44 34 17 3 330 289 269 265 268 274 276 275 275 274 272 269 270 271 274 280 284 275 268 265 259 251 247 245 243
72 324 31 140 144 123 21 220 112 90 100 107 80 43 40 45 43 40 32 20 14 17 14 7 1 342 303 280 276 275 276 275 275 276 274 270 269 272 271 272 276 277 271 267 263 255 248 246 247
111 67 18 98 29 249 317 184 74 137 115 112 51 37 43 46 27 9 359 355 354 355 349 352 343 337 326 305 286 276 272 272 275 275 273 271 268 266 266 266 268 272 265 261 258 254 251 250 249
27 126 103 30 146 184 230 291 140 169 155 79 30 38 38 10 358 356 351 349 352 352 351 343 333 323 315 306 295 288 281 275 271 270 272 274 272 267 263 261 262 266 264 257 255 254 250 248 248
97 126 52 85 353 116 173 238 181 174 157 37 26 29 359 349 353 355 355 352 344 339 334 328 319 312 305 303 296 285 276 273 273 274 276 274 273 269 265 261 261 261 262 258 253 252 249 246 243
248 180 190 217 155 106 157 246 183 142 164 209 17 353 343 350 347 346 348 345 342 340 337 332 324 313 305 301 298 292 287 283 273 267 270 272 273 272 269 266 262 259 259 258 255 253 252 248 244
Wind_Speed_850mb
7 2 3 8 9 3 9 9 2 15 16 8 17 6 6 13 3 6 27 31 33 28 22 15 3 9 14 18 16 17 18 20 23 24 24 21 20 21 16 22 19 17 20 20 21 24 23 23 24
9 2 6 4 9 16 9 10 15 14 18 29 20 14 6 8 7 23 27 34 31 25 21 14 4 11 16 18 18 18 18 20 22 23 23 20 18 18 21 20 19 20 20 22 23 22 21 26 27
13 3 6 6 5 20 9 14 22 29 19 17 11 10 6 6 19 31 28 36 30 21 20 15 4 9 19 22 23 19 19 20 21 22 20 19 18 19 18 16 18 16 19 18 19 19 23 25 28
12 3 3 8 12 5 5 21 37 27 13 7 21 16 11 9 26 21 39 32 28 18 16 13 3 7 14 20 20 17 17 19 20 21 19 17 16 16 17 19 16 15 12 13 18 15 22 23 29
11 5 6 5 6 5 6 29 27 18 15 18 8 12 16 21 21 37 35 29 18 12 18 12 5 6 14 21 23 18 18 19 19 20 20 17 11 11 16 16 12 13 10 15 14 16 21 23 22
7 4 11 12 9 9 15 25 23 16 17 16 18 23 15 21 33 37 31 26 20 17 15 9 5 7 14 21 20 16 17 17 19 19 20 18 15 13 12 15 14 10 8 13 15 18 20 22 23
7 5 5 12 18 15 15 15 15 21 23 13 20 13 15 31 39 37 28 25 23 19 13 7 5 9 13 18 12 13 14 14 16 18 19 18 14 12 11 8 12 8 5 12 12 15 16 20 23
7 4 10 8 23 12 19 11 11 12 13 23 14 9 16 37 47 39 32 26 23 18 11 8 8 12 16 14 9 11 12 14 16 19 20 16 13 9 7 4 6 8 5 9 8 12 12 21 25
8 6 10 14 21 16 23 11 6 11 19 10 12 12 16 55 52 45 37 33 26 20 14 11 12 15 17 11 9 10 11 13 17 19 19 16 12 10 8 2 5 7 2 5 5 7 11 21 22
7 8 11 5 7 18 26 18 24 14 21 10 13 19 30 57 53 46 38 31 25 21 16 15 16 17 13 9 8 8 11 14 17 18 18 17 15 12 7 3 3 6 4 2 2 7 10 14 16
3 6 14 6 8 28 24 18 11 21 16 19 27 31 40 59 53 42 34 28 23 22 19 17 18 20 13 11 10 12 13 15 16 17 18 17 16 13 9 3 4 6 8 6 6 7 9 11 12
6 8 5 13 12 14 20 20 11 18 3 13 16 31 45 61 57 43 38 32 27 24 22 19 20 17 14 13 12 14 15 16 18 19 19 21 19 14 8 3 6 10 12 12 11 12 12 11 12
5 12 12 13 19 19 20 8 2 11 4 12 21 29 41 54 53 40 37 35 32 26 24 22 22 21 19 15 14 16 18 18 19 21 22 22 20 17 11 4 8 12 15 16 16 18 16 15 14
11 25 22 9 12 12 11 7 2 4 6 14 23 27 32 42 44 43 43 39 37 32 26 25 23 25 24 21 20 21 22 22 22 23 24 23 21 18 13 7 9 14 19 20 18 21 17 15 11
31 19 17 14 5 8 8 5 4 3 10 17 20 20 29 38 49 48 45 42 39 34 33 30 30 26 25 28 27 27 28 27 26 26 26 25 24 20 14 8 9 16 20 24 25 25 19 16 13
8 9 13 7 9 3 5 8 7 6 14 18 20 24 31 44 42 45 45 42 40 40 36 37 37 33 33 35 33 35 34 37 32 30 29 28 28 23 18 14 11 19 23 30 31 29 25 21 17
8 10 10 9 5 2 2 1 5 6 14 19 22 27 31 36 41 43 43 44 47 42 41 43 43 41 38 41 42 42 40 41 42 37 34 32 29 23 20 19 17 14 28 29 36 39 35 29 25
9 11 6 8 5 1 3 12 9 11 17 24 27 30 34 38 43 41 50 48 48 48 46 46 47 49 46 46 48 48 46 44 43 42 37 35 31 26 25 24 22 22 24 31 37 49 44 39 34
18 14 12 5 7 5 3 14 23 18 24 31 29 28 32 39 34 38 52 55 53 55 55 55 56 52 56 57 53 52 51 48 44 39 37 36 32 28 27 27 27 25 28 33 37 47 52 48 40
13 20 8 6 7 6 10 25 20 11 16 20 29 31 31 32 33 38 41 51 58 61 62 60 63 62 60 57 55 55 51 53 47 42 39 36 34 33 28 30 32 31 32 35 43 50 56 61 51
12 11 9 7 7 5 19 4 10 7 7 12 11 8 14 21 26 31 40 46 51 57 62 62 60 61 59 56 55 55 55 57 52 48 43 39 37 39 39 35 34 35 36 38 43 52 56 62 55
10 7 14 11 8 2 12 3 8 11 19 31 33 32 26 25 22 19 21 31 43 47 55 57 58 60 59 55 55 56 56 54 52 47 42 41 42 45 47 44 38 38 36 38 42 49 55 63 66
9 8 11 9 9 6 9 2 7 3 14 25 34 33 31 34 33 25 17 14 14 25 41 45 50 56 57 53 53 54 54 52 51 49 49 49 46 48 49 48 42 41 41 40 43 48 56 65 67
21 12 8 6 4 4 7 7 7 7 12 22 31 37 50 55 48 35 27 28 29 26 19 24 37 43 47 50 51 52 52 50 53 48 51 51 51 52 51 51 45 43 44 44 45 48 54 62 69
2 4 2 3 3 4 4 5 9 12 14 14 31 32 49 61 67 53 48 46 49 53 44 34 25 26 36 44 48 50 50 52 54 51 51 53 56 57 51 51 49 45 47 46 47 49 52 58 65
5 3 2 4 4 4 3 4 11 13 14 15 22 31 42 58 62 57 52 49 48 41 46 44 36 27 26 34 42 47 50 53 56 55 56 56 59 58 55 55 54 50 48 49 50 52 54 58 62
2 5 4 9 5 1 3 3 11 15 8 16 19 30 39 47 54 58 59 56 50 40 34 32 31 30 26 29 36 45 49 53 57 58 60 61 62 60 60 61 61 56 52 53 53 54 55 58 60
5 8 4 3 5 3 0 9 14 17 19 6 27 29 26 39 48 54 54 51 42 35 32 34 33 34 37 34 33 37 45 52 57 61 65 65 65 63 64 66 66 64 61 57 59 58 58 60 59
3 1 6 3 3 2 0 3 9 24 16 8 11 11 22 38 45 46 41 31 35 39 44 43 38 36 40 44 43 45 46 49 55 62 64 65 63 65 67 68 69 70 68 64 65 64 61 63 61
2 5 4 5 7 4 3 13 11 11 17 4 12 21 42 40 42 45 44 48 48 45 40 38 38 40 44 48 50 49 51 58 63 68 69 68 67 66 68 69 70 73 72 70 70 67 65 66 66
Wind_Direction_850mb
338 311 184 167 211 212 156 152 64 137 136 115 141 187 132 40 1 49 142 152 151 145 152 148 152 337 1 15 16 15 21 17 13 13 11 16 42 69 64 60 38 38 30 37 48 56 52 53 52
347 268 171 204 232 199 170 138 170 135 125 126 110 115 99 83 62 132 137 149 149 148 150 150 172 329 357 10 12 12 15 18 12 13 12 25 44 59 72 65 48 40 35 44 47 55 56 55 65
334 241 216 214 218 212 170 163 138 126 132 143 120 84 71 97 122 139 150 147 148 151 164 153 170 337 357 3 6 7 8 11 13 13 18 31 51 59 55 71 56 54 48 51 59 62 59 61 74
315 248 98 236 182 86 98 148 140 137 120 110 130 94 86 121 135 150 147 148 149 156 168 167 193 352 343 348 356 359 4 5 10 12 18 40 57 69 60 54 60 62 55 62 71 56 61 72 80
285 255 187 141 129 89 114 139 152 142 129 136 139 116 109 144 137 149 149 152 157 173 163 174 218 302 322 339 345 352 359 3 9 10 16 25 47 70 92 69 61 71 58 67 77 62 68 76 88
263 253 195 180 143 111 132 143 148 140 143 139 121 122 134 168 157 155 153 154 167 169 163 190 233 302 316 335 345 354 356 3 8 10 14 21 34 43 67 84 73 76 55 66 74 76 77 86 96
284 240 163 150 141 151 155 165 176 145 149 140 140 122 141 155 161 161 160 165 163 171 176 191 244 283 313 328 344 351 354 1 5 11 16 18 19 21 23 84 93 84 29 74 75 76 82 100 107
272 252 140 166 171 152 149 136 145 173 148 150 151 156 167 176 164 168 171 172 181 187 197 219 254 288 316 325 340 344 351 358 1 8 10 11 12 8 14 46 98 93 52 82 72 87 70 101 111
248 222 188 170 173 141 159 151 159 151 146 154 172 149 153 171 169 173 178 180 193 198 209 224 255 288 316 318 330 339 346 351 356 0 6 8 2 1 355 38 122 130 62 86 87 86 99 115 124
256 240 170 114 136 155 159 170 153 164 156 171 174 184 166 173 174 177 185 194 204 212 225 236 259 285 304 303 309 322 337 348 354 358 0 359 355 353 357 11 128 152 160 114 114 114 114 134 142
265 240 136 114 125 146 143 148 162 158 190 196 194 177 173 178 178 185 192 207 218 225 230 239 257 278 291 302 310 326 337 344 348 350 351 351 351 353 355 331 209 192 178 197 190 174 161 155 160
226 85 105 142 133 130 146 142 163 193 115 177 177 182 179 182 183 186 197 211 219 228 235 241 259 281 291 304 310 320 325 332 336 339 344 345 343 343 350 292 221 210 204 203 209 197 187 179 174
205 119 86 114 123 101 126 114 176 200 221 181 167 179 184 188 189 191 200 210 219 225 235 244 261 275 293 300 307 311 320 327 332 332 335 338 333 329 334 303 219 213 210 203 206 198 187 179 167
135 114 108 88 108 97 126 116 157 177 192 151 174 183 189 196 200 200 203 213 218 226 233 247 256 271 284 294 303 304 310 319 326 330 329 329 324 317 315 291 226 214 211 202 208 205 189 193 184
120 105 115 48 8 84 124 144 197 95 165 176 186 193 196 204 212 215 209 216 224 232 238 245 256 264 276 287 297 303 306 311 314 320 323 323 316 310 301 281 226 216 216 215 215 219 219 233 239
126 145 146 32 358 22 248 168 133 173 192 195 199 208 210 212 219 226 224 223 231 236 240 243 254 258 270 277 287 294 299 303 306 311 317 318 312 303 293 275 240 218 217 225 223 231 233 237 246
8 143 146 138 37 109 340 123 140 187 210 223 216 221 224 223 228 229 228 233 242 239 251 252 258 256 266 272 280 282 285 291 299 304 306 310 310 295 286 273 257 235 218 224 232 232 231 232 235
157 144 128 142 68 97 178 251 210 207 225 239 229 227 231 237 237 238 239 239 239 247 247 249 255 261 263 265 271 277 280 285 290 299 300 304 313 302 290 276 260 245 231 227 232 236 231 231 231
123 127 128 82 49 314 286 279 264 241 232 250 255 252 244 246 255 247 245 242 248 248 247 251 255 255 257 257 262 269 274 281 281 290 293 299 308 313 296 281 265 253 239 233 236 241 233 228 228
115 130 103 98 36 341 333 290 318 311 263 280 278 265 270 271 269 269 260 251 251 253 254 253 255 258 259 262 266 268 272 276 277 281 284 287 297 300 305 286 272 260 249 239 234 237 234 225 225
84 144 151 115 96 58 328 294 29 29 12 18 350 308 318 298 288 281 272 261 257 256 258 258 259 260 263 264 264 265 266 268 273 276 281 291 292 295 300 296 276 267 256 246 239 240 241 241 233
101 69 109 99 178 153 358 125 47 5 84 54 38 44 30 10 359 337 298 275 261 258 259 259 257 258 261 262 263 266 266 269 276 277 276 282 286 291 296 300 282 271 263 253 246 241 241 241 237
113 113 93 90 93 166 18 185 96 273 36 28 17 11 21 16 8 2 2 344 306 269 261 262 260 260 261 263 266 266 267 269 270 277 272 278 281 287 289 296 292 274 266 256 249 247 239 239 242
138 109 84 93 137 101 345 340 64 44 3 24 49 42 40 35 30 32 39 43 39 21 343 293 268 263 260 264 266 269 271 271 274 276 272 274 275 279 280 290 289 273 265 262 255 248 246 239 241
104 156 155 130 96 119 344 305 64 32 45 82 76 51 44 41 43 49 54 54 44 34 17 3 330 289 269 265 268 274 276 275 275 274 272 269 270 271 274 280 284 275 268 265 259 251 247 245 243
72 324 31 140 144 123 21 220 112 90 100 107 80 43 40 45 43 40 32 20 14 17 14 7 1 342 303 280 276 275 276 275 275 276 274 270 269 272 271 272 276 277 271 267 263 255 248 246 247
111 67 18 98 29 249 317 184 74 137 115 112 51 37 43 46 27 9 359 355 354 355 349 352 343 337 326 305 286 276 272 272 275 275 273 271 268 266 266 266 268 272 265 261 258 254 251 250 249
27 126 103 30 146 184 230 291 140 169 155 79 30 38 38 10 358 356 351 349 352 352 351 343 333 323 315 306 295 288 281 275 271 270 272 274 272 267 263 261 262 266 264 257 255 254 250 248 248
97 126 52 85 353 116 173 238 181 174 157 37 26 29 359 349 353 355 355 352 344 339 334 328 319 312 305 303 296 285 276 273 273 274 276 274 273 269 265 261 261 261 262 258 253 252 249 246 243
248 180 190 217 155 106 157 246 183 142 164 209 17 353 343 350 347 346 348 345 342 340 337 332 324 313 305 301 298 292 287 283 273 267 270 272 273 272 269 266 262 259 259 258 255 253 252 248 244